TimeEST,TemperatureF,Dew PointF,Humidity,Sea Level PressureIn,VisibilityMPH,Wind Direction,Wind SpeedMPH,Gust SpeedMPH,PrecipitationIn,Events,Conditions,WindDirDegrees,DateUTC
12:15 AM,41.2,28.4,60,30.26,10.0,NW,4.6,-,N/A,,Clear,320,2013-03-09 05:15:00
12:35 AM,41.0,28.6,61,30.26,10.0,NNW,4.6,-,N/A,,Clear,340,2013-03-09 05:35:00
12:55 AM,40.3,28.4,63,30.26,10.0,NNW,3.5,-,N/A,,Clear,330,2013-03-09 05:55:00
1:15 AM,39.4,28.4,65,30.26,10.0,WNW,3.5,-,N/A,,Clear,290,2013-03-09 06:15:00
1:35 AM,39.6,28.4,64,30.27,10.0,NW,4.6,-,N/A,,Clear,310,2013-03-09 06:35:00
2:15 AM,39.2,28.4,65,30.27,10.0,NW,4.6,-,N/A,,Clear,310,2013-03-09 07:15:00
2:35 AM,38.8,28.8,67,30.27,10.0,NNW,4.6,-,N/A,,Clear,340,2013-03-09 07:35:00
3:15 AM,38.7,28.4,67,30.26,10.0,NW,6.9,-,N/A,,Clear,320,2013-03-09 08:15:00
3:35 AM,38.7,28.4,67,30.25,10.0,North,6.9,-,N/A,,Clear,350,2013-03-09 08:35:00
4:15 AM,38.3,28.4,68,30.25,10.0,North,5.8,-,N/A,,Clear,360,2013-03-09 09:15:00
4:35 AM,37.9,28.2,68,30.26,10.0,North,5.8,-,N/A,,Clear,350,2013-03-09 09:35:00
5:15 AM,37.4,28.0,69,30.27,10.0,North,4.6,-,N/A,,Clear,350,2013-03-09 10:15:00
5:35 AM,37.0,28.0,70,30.28,10.0,NNW,4.6,-,N/A,,Clear,340,2013-03-09 10:35:00
5:55 AM,36.7,28.0,71,30.28,10.0,NNW,3.5,-,N/A,,Clear,340,2013-03-09 10:55:00
6:15 AM,36.1,28.0,72,30.28,10.0,NNW,4.6,-,N/A,,Clear,340,2013-03-09 11:15:00
6:35 AM,36.1,28.0,72,30.29,10.0,North,4.6,-,N/A,,Clear,350,2013-03-09 11:35:00
6:55 AM,36.0,28.0,73,30.29,10.0,North,5.8,-,N/A,,Clear,360,2013-03-09 11:55:00
7:15 AM,37.2,28.8,71,30.29,10.0,North,5.8,-,N/A,,Clear,360,2013-03-09 12:15:00
7:35 AM,38.3,29.1,70,30.29,10.0,North,8.1,-,N/A,,Clear,360,2013-03-09 12:35:00
7:55 AM,39.6,28.9,66,30.30,10.0,North,5.8,-,N/A,,Clear,360,2013-03-09 12:55:00
8:15 AM,41.0,29.1,63,30.31,10.0,North,11.5,-,N/A,,Clear,360,2013-03-09 13:15:00
8:35 AM,42.4,28.8,58,30.30,10.0,North,10.4,16.1,N/A,,Clear,10,2013-03-09 13:35:00
8:55 AM,43.7,28.8,56,30.31,10.0,North,11.5,-,N/A,,Clear,360,2013-03-09 13:55:00
9:15 AM,45.1,28.8,53,30.31,10.0,NNE,9.2,-,N/A,,Clear,20,2013-03-09 14:15:00
9:35 AM,46.6,29.1,51,30.31,10.0,North,8.1,-,N/A,,Clear,360,2013-03-09 14:35:00
9:55 AM,48.0,29.1,48,30.32,10.0,North,4.6,-,N/A,,Clear,350,2013-03-09 14:55:00
10:15 AM,48.9,28.4,45,30.31,10.0,North,9.2,-,N/A,,Clear,10,2013-03-09 15:15:00
10:35 AM,50.0,28.0,43,30.31,10.0,North,9.2,18.4,N/A,,Clear,350,2013-03-09 15:35:00
10:55 AM,51.1,28.9,43,30.31,10.0,NNW,10.4,-,N/A,,Clear,340,2013-03-09 15:55:00
11:15 AM,52.5,29.5,41,30.31,10.0,NNW,4.6,-,N/A,,Clear,340,2013-03-09 16:15:00
11:35 AM,53.8,30.6,41,30.31,10.0,North,8.1,-,N/A,,Clear,350,2013-03-09 16:35:00
12:15 PM,55.0,29.8,38,30.30,10.0,North,10.4,-,N/A,,Clear,350,2013-03-09 17:15:00
12:35 PM,55.8,30.7,39,30.30,10.0,NW,11.5,-,N/A,,Clear,320,2013-03-09 17:35:00
12:55 PM,57.2,31.1,37,30.29,10.0,North,10.4,-,N/A,,Clear,10,2013-03-09 17:55:00
1:15 PM,57.7,31.1,36,30.28,10.0,North,9.2,16.1,N/A,,Clear,360,2013-03-09 18:15:00
1:35 PM,58.1,31.3,36,30.27,10.0,North,9.2,-,N/A,,Clear,360,2013-03-09 18:35:00
1:55 PM,58.8,31.5,36,30.26,10.0,NW,9.2,-,N/A,,Clear,320,2013-03-09 18:55:00
2:15 PM,59.5,31.1,34,30.26,10.0,Calm,Calm,-,N/A,,Clear,0,2013-03-09 19:15:00
2:35 PM,59.9,31.8,35,30.26,10.0,NNE,9.2,-,N/A,,Clear,30,2013-03-09 19:35:00
2:55 PM,60.1,31.3,34,30.26,10.0,NNW,4.6,-,N/A,,Clear,330,2013-03-09 19:55:00
3:15 PM,60.8,31.8,34,30.25,10.0,North,4.6,-,N/A,,Clear,360,2013-03-09 20:15:00
3:35 PM,60.8,31.6,33,30.25,10.0,NNE,5.8,-,N/A,,Clear,20,2013-03-09 20:35:00
3:55 PM,61.2,31.8,33,30.25,10.0,NNW,5.8,-,N/A,,Clear,340,2013-03-09 20:55:00
4:15 PM,61.2,32.0,33,30.24,10.0,NNW,9.2,-,N/A,,Clear,340,2013-03-09 21:15:00
4:35 PM,60.8,32.5,35,30.24,10.0,North,8.1,-,N/A,,Clear,360,2013-03-09 21:35:00
4:55 PM,60.8,32.4,34,30.24,10.0,North,4.6,-,N/A,,Clear,360,2013-03-09 21:55:00
5:15 PM,60.3,32.9,36,30.24,10.0,NNE,5.8,-,N/A,,Clear,20,2013-03-09 22:15:00
5:35 PM,59.7,32.5,36,30.24,10.0,NE,4.6,-,N/A,,Clear,40,2013-03-09 22:35:00
5:55 PM,57.7,32.9,39,30.25,10.0,North,3.5,-,N/A,,Clear,10,2013-03-09 22:55:00
6:15 PM,54.9,36.1,49,30.26,10.0,Calm,Calm,-,N/A,,Clear,0,2013-03-09 23:15:00
6:35 PM,52.9,34.0,49,30.26,10.0,Calm,Calm,-,N/A,,Clear,0,2013-03-09 23:35:00
6:55 PM,49.8,35.6,58,30.27,10.0,Calm,Calm,-,N/A,,Clear,0,2013-03-09 23:55:00
7:15 PM,47.5,36.1,65,30.27,10.0,Calm,Calm,-,N/A,,Clear,0,2013-03-10 00:15:00
7:35 PM,45.5,35.8,69,30.28,10.0,Calm,Calm,-,N/A,,Clear,0,2013-03-10 00:35:00
7:55 PM,45.9,35.6,67,30.28,10.0,Calm,Calm,-,N/A,,Clear,0,2013-03-10 00:55:00
8:15 PM,43.9,35.4,72,30.28,10.0,Calm,Calm,-,N/A,,Clear,0,2013-03-10 01:15:00
8:35 PM,43.3,34.9,72,30.29,10.0,Calm,Calm,-,N/A,,Clear,0,2013-03-10 01:35:00
9:15 PM,41.0,35.4,81,30.29,10.0,Calm,Calm,-,N/A,,Clear,0,2013-03-10 02:15:00
9:35 PM,40.3,34.7,80,30.29,10.0,Calm,Calm,-,N/A,,Clear,0,2013-03-10 02:35:00
9:55 PM,39.6,33.8,80,30.29,10.0,Calm,Calm,-,N/A,,Clear,0,2013-03-10 02:55:00
10:15 PM,38.7,35.4,88,30.29,10.0,Calm,Calm,-,N/A,,Clear,0,2013-03-10 03:15:00
10:35 PM,38.1,35.6,91,30.29,10.0,Calm,Calm,-,N/A,,Clear,0,2013-03-10 03:35:00
10:55 PM,37.8,36.1,94,30.30,10.0,Calm,Calm,-,N/A,,Clear,0,2013-03-10 03:55:00
11:15 PM,37.2,35.6,94,30.29,10.0,Calm,Calm,-,N/A,,Clear,0,2013-03-10 04:15:00
11:35 PM,36.5,35.2,95,30.29,10.0,Calm,Calm,-,N/A,,Clear,0,2013-03-10 04:35:00
11:55 PM,35.6,34.7,97,30.29,10.0,Calm,Calm,-,N/A,,Clear,0,2013-03-10 04:55:00